Regional Weather Roundup
Issued by NWS

Home | Current Version | Previous Version | Graphics & Text | Print | Product List | Glossary On
Versions: 1 2 3 4 5 6 7 8 9 10 11 12 13 14 15 16 17 18 19 20 21 22 23 24 25 26 27 28 29 30 31 32 33 34 35 36 37 38 39 40 41 42 43 44 45 46 47 48 49 50
736
ASUS44 KLIX 020601
RWRLA
LOUISIANA WEATHER ROUNDUP
NATIONAL WEATHER SERVICE NEW ORLEANS LA
1200 AM CST MON MAR 02 2015

NOTE: "FAIR" INDICATES FEW OR NO CLOUDS BELOW 12,000 FEET WITH NO
      SIGNIFICANT WEATHER AND/OR OBSTRUCTIONS TO VISIBILITY.
      SKY/WX - SKY CONDITION AND SIGNIFICANT WEATHER.
      TMP - AIR TEMPERATURE.    DP   - DEWPOINT TEMPERATURE.
      RH  - RELATIVE HUMIDITY.  PRES - PRESSURE.
      HX  - HEAT INDEX.         WCI  - WIND CHILL INDEX.

*  THESE STATIONS ARE NOT NWS OR FAA STATIONS AND ARE NOT UNDER
   NWS QUALITY CONTROL.

LAZ040-048-061>063-065-066-069-020700-
SOUTHEAST LOUISIANA

CITY           SKY/WX    TMP DP  RH WIND       PRES   REMARKS
N.O. AUDUBON     N/A     58  58 100 MISG        N/A
6HR MIN TEMP:  57; 6HR MAX TEMP:  59; 6HR PCP:  0.07;

N.O. INTL ARPT LGT RAIN  59  57  93 E10       30.29S FOG
6HR MIN TEMP:  58; 6HR MAX TEMP:  60; 6HR PCP:  0.12;

N.O. LAKEFRONT RAIN      60  57  89 E10       30.30F FOG
6HR MIN TEMP:  57; 6HR MAX TEMP:  60; 6HR PCP:  0.06;

SLIDELL        LGT RAIN  60  60 100 E9        30.30F
6HR MIN TEMP:  60; 6HR MAX TEMP:  61; 6HR PCP:  0.18;

BATON ROUGE    RAIN      62  60  93 E9        30.28F
6HR MIN TEMP:  61; 6HR MAX TEMP:  63; 6HR PCP:  1.10;

BOOTHVILLE     FOG       62  62 100 E7        30.30S VSB 1/4
6HR MIN TEMP:  60; 6HR MAX TEMP:  67;

BELLE CHASSE   LGT RAIN  57  55  93 NE12      30.30S FOG
6HR MIN TEMP:  57; 6HR MAX TEMP:  59; 6HR PCP:  0.01;

BOGALUSA*        N/A     61  57  88 CALM      30.31F
6HR MIN TEMP:  61; 6HR MAX TEMP:  63; 6HR PCP:  0.46;

GALLIANO*      FOG       57  57  98 CALM      30.28S VSB 1/4
6HR MIN TEMP:  57; 6HR MAX TEMP:  69;

NEW ROADS*     NOT AVBL
GONZALES*      NOT AVBL
HAMMOND*       NOT AVBL
HOUMA*         CLOUDY    64  63  97 N12       30.28R FOG
6HR MIN TEMP:  63; 6HR MAX TEMP:  70;

PORT FOURCHON* FOG       64  64 100 E8        30.30S VSB 1/4

$$

LAZ041-044-053-054-020700-
SOUTHWEST LOUISIANA

CITY           SKY/WX    TMP DP  RH WIND       PRES   REMARKS
LAKE CHARLES   LGT RAIN  63  63 100 NE9       30.24S FOG
6HR MIN TEMP:  63; 6HR MAX TEMP:  65; 6HR PCP:  0.38;

LAFAYETTE      LGT RAIN  64  63  96 E5        30.26F
6HR MIN TEMP:  64; 6HR MAX TEMP:  71; 6HR PCP:  1.37;

PATTERSON      CLOUDY    64  63  94 NE9       30.28F
6HR MIN TEMP:  64; 6HR MAX TEMP:  73;

SALT POINT       N/A     66  65  96 SE6       30.24F
6HR MIN TEMP:  65; 6HR MAX TEMP:  69;

NEW IBERIA     CLOUDY    65  62  90 E9        30.27S
6HR MIN TEMP:  64; 6HR MAX TEMP:  71; 6HR PCP:  1.38;

CHENAULT AIRPK DRIZZLE   63  63  99 NE5       30.25S
6HR MIN TEMP:  63; 6HR MAX TEMP:  65; 6HR PCP:  0.37;


$$

LAZ027-028-020700-
CENTRAL LOUISIANA

CITY           SKY/WX    TMP DP  RH WIND       PRES   REMARKS
FORT POLK      FOG       52  51  98 N5        30.28F VSB 1/2
6HR MIN TEMP:  52; 6HR MAX TEMP:  59;

ALEXANDRIA INT CLOUDY    50  50 100 N5        30.29S FOG
6HR MIN TEMP:  50; 6HR MAX TEMP:  55; 6HR PCP:  0.02;

ALEXANDRIA     CLOUDY    50  49  96 CALM      30.30S
6HR MIN TEMP:  50; 6HR MAX TEMP:  61; 6HR PCP:  0.04;


$$

LAZ001-002-020700-
NORTHWEST LOUISIANA

CITY           SKY/WX    TMP DP  RH WIND       PRES   REMARKS
SHREVEPORT     DRIZZLE   44  43  96 N6        30.33S FOG
6HR MIN TEMP:  43; 6HR MAX TEMP:  44; 6HR PCP:  0.23;

BARKSDALE AFB  CLOUDY    43  43 100 N5        30.33S
6HR MIN TEMP:  42; 6HR MAX TEMP:  43; 6HR PCP:  0.24;

DTN SHREVEPORT CLOUDY    43  41  93 N6        30.34S FOG
6HR MIN TEMP:  42; 6HR MAX TEMP:  43; 6HR PCP:  0.18;


$$

LAZ014-016-020700-
NORTHEAST LOUISIANA

CITY           SKY/WX    TMP DP  RH WIND       PRES   REMARKS
MONROE         CLOUDY    44  44 100 CALM      30.34F
6HR MIN TEMP:  42; 6HR MAX TEMP:  44; 6HR PCP:  0.04;

TALLULAH       FOG       47  46  97 N7        30.32F VSB 1/2
6HR MIN TEMP:  47; 6HR MAX TEMP:  56; 6HR PCP:  0.10;


$$




USA.gov is the U.S. government's official web portal to all federal, state and local government web resources and services.